K7JKM Weather Reports


time (UTC)temp
F
wind
direction
speed
knots
gust
knots
rain 1hr
in
rain 24hr
in
rain mn
in
humidity
%
barometer
mb
20260502224503 66 153 0.0 0.0 0.00 0.00 0.00 53 1013.5
20260502223025 64 287 0.0 0.9 0.00 0.00 0.00 55 1013.7
20260502221524 65 305 0.0 0.0 0.00 0.00 0.00 54 1013.7
20260502220020 66 24 0.0 0.0 0.00 0.00 0.00 53 1013.9
20260502214518 65 70 0.0 0.0 0.00 0.00 0.00 53 1014.0
20260502213015 66 80 0.0 1.7 0.00 0.00 0.00 53 1014.0
20260502211513 66 58 0.0 2.6 0.00 0.00 0.00 51 1014.4
20260502210007 65 17 0.0 0.9 0.00 0.00 0.00 52 1014.5
20260502204526 64 55 0.0 2.6 0.00 0.00 0.00 54 1014.6
20260502203025 63 297 0.0 0.9 0.00 0.00 0.00 54 1015.0
20260502201522 61 23 0.0 0.9 0.00 0.00 0.00 55 1015.2
20260502200022 61 311 0.0 1.7 0.00 0.00 0.00 55 1015.5
20260502194519 61 78 0.0 0.9 0.00 0.00 0.00 56 1015.7
20260502193015 59 70 0.0 0.9 0.00 0.00 0.00 56 1015.7
20260502191512 60 307 0.0 0.9 0.00 0.00 0.00 56 1015.8
20260502190030 59 304 0.0 0.0 0.00 0.00 0.00 59 1016.2
20260502184528 58 347 0.0 0.0 0.00 0.00 0.00 57 1016.4
20260502183026 57 113 0.0 1.7 0.00 0.00 0.00 62 1016.5
20260502181507 55 68 0.0 0.0 0.00 0.00 0.00 63 1016.4
20260502163011 54 263 0.0 0.0 0.00 0.00 0.00 60 1016.8
20260502161503 53 288 0.0 0.0 0.00 0.00 0.00 62 1016.8
20260502151516 50 304 0.0 0.0 0.00 0.00 0.00 64 1016.7
20260502123101 48 312 0.0 0.9 0.00 0.00 0.00 66 1016.6
20260502121527 48 295 0.0 0.9 0.00 0.00 0.00 66 1016.7
20260502114503 48 291 0.0 0.0 0.00 0.00 0.00 67 1016.7
20260502113002 48 258 0.0 0.0 0.00 0.00 0.00 67 1016.7
20260502111511 48 258 0.0 0.0 0.00 0.00 0.00 67 1016.8
20260502110011 48 258 0.0 0.0 0.00 0.00 0.00 67 1016.5
20260502104513 48 258 0.0 0.0 0.00 0.00 0.00 67 1016.7
20260502103012 49 283 0.0 0.0 0.00 0.00 0.00 67 1016.7
20260502101510 50 283 0.0 0.0 0.00 0.00 0.00 66 1016.7
20260502091516 51 292 0.0 0.0 0.00 0.00 0.00 66 1016.9
20260502071526 52 301 0.0 4.3 0.00 0.00 0.00 64 1017.7
20260502070022 52 296 0.0 2.6 0.00 0.00 0.00 64 1017.3
20260502064517 52 285 0.0 1.7 0.00 0.00 0.00 65 1017.5
20260502063015 52 304 0.0 2.6 0.00 0.00 0.00 65 1017.5
20260502061524 52 191 0.0 1.7 0.00 0.00 0.00 64 1017.5
20260502060022 52 303 0.0 3.5 0.00 0.00 0.00 64 1017.3
20260502054526 52 277 0.0 3.5 0.00 0.00 0.00 64 1017.2
20260502053023 52 101 0.0 3.5 0.00 0.00 0.00 64 1017.1
20260502051524 52 266 0.0 2.6 0.00 0.00 0.00 65 1017.1
20260502050031 53 68 0.0 4.3 0.00 0.00 0.00 65 1017.0
20260502044515 53 13 0.0 4.3 0.00 0.00 0.00 64 1016.9
20260502043028 53 300 0.0 4.3 0.00 0.00 0.00 64 1016.7
20260502041530 53 316 0.0 5.2 0.00 0.00 0.00 64 1016.6
20260502040012 54 295 0.0 4.3 0.00 0.00 0.00 63 1016.3
20260502034510 54 321 1.7 7.8 0.00 0.00 0.00 63 1016.3
20260502033008 55 49 0.9 7.0 0.00 0.00 0.00 62 1015.9
20260502031503 55 290 1.7 7.0 0.00 0.00 0.00 62 1015.8
20260502030010 56 305 0.9 7.8 0.00 0.00 0.00 61 1015.8
20260502024503 56 297 0.9 6.1 0.00 0.00 0.00 60 1015.6
20260502023013 57 263 1.7 9.6 0.00 0.00 0.00 59 1015.5
20260502021511 58 323 0.9 7.0 0.00 0.00 0.00 57 1015.4
20260502020008 59 196 0.0 7.0 0.00 0.00 0.00 57 1015.3
20260502014505 61 264 0.9 7.0 0.00 0.00 0.00 55 1015.3
20260502013003 62 314 0.9 7.0 0.00 0.00 0.00 54 1015.3
20260502011507 63 346 1.7 6.1 0.00 0.00 0.00 53 1015.3
20260502010005 64 293 0.9 7.0 0.00 0.00 0.00 53 1015.3
20260502004540 65 320 2.6 7.0 0.00 0.00 0.00 50 1015.3
20260502003014 67 319 0.9 6.1 0.00 0.00 0.00 49 1015.3
20260502001516 68 86 0.9 7.8 0.00 0.00 0.00 47 1015.2
20260502000009 69 272 2.6 7.8 0.00 0.00 0.00 46 1015.2
20260501234507 71 8 1.7 5.2 0.00 0.00 0.00 45 1015.2
20260501233003 71 323 0.9 6.1 0.00 0.00 0.00 44 1015.3
20260501231506 71 288 0.0 4.3 0.00 0.00 0.00 43 1015.3
20260501230022 71 221 0.9 7.0 0.00 0.00 0.00 43 1015.3